{"data":{"norad_id":64793,"intl_designator":"2025-150D","name":"STARLINK-34693","alt_names":[],"object_type":"PAYLOAD","status":"ACTIVE","operator":null,"country":"US","launch_date":"2025-07-16","launch_site_code":"AFWTR","launch_vehicle":null,"mission":null,"orbit_class":"UNKNOWN","rcs_meters":null,"size_class":null,"mass_kg":null,"dimensions":null,"purposes":["comms"],"wikipedia_slug":null,"has_3d_model":false,"image_url":null,"decayed_at":null,"tle_current":{"epoch":"2026-05-25T03:21:29.780928Z","epoch_age_seconds":53232,"freshness":"FRESH","line1":"1 64793U 25150D   26145.13992802  .00001828  00000+0  16092-3 0  9993","line2":"2 64793  70.0007 301.8807 0003098 263.9268  96.1538 14.98337336 47963","mean_motion":14.98337336,"eccentricity":0.0003098,"inclination_deg":70.0007,"raan_deg":301.8807,"arg_perigee_deg":263.9268,"mean_anomaly_deg":96.1538,"bstar":0.00016092,"rev_number":4796,"period_min":96.10652857682,"perigee_km":569.8800423326,"apogee_km":574.18636779165,"semimajor_km":6950.1702050621,"source":"CELESTRAK","updated_at":"2026-05-25T13:38:20.563007Z"}}}